EW6205 Weather Reports


time (UTC)temp
C
wind
direction
speed
KPH
gust
KPH
rain 1hr
cm
rain 24hr
cm
rain mn
cm
humidity
%
barometer
mb
20260502170205 18 332 12.9 24.1 0.00 0.00 0.00 36 1011.2
20260502164206 17 311 14.5 25.7 0.00 0.00 0.00 37 1011.1
20260502163705 17 321 11.3 25.7 0.00 0.00 0.00 37 1011.2
20260502163205 17 311 11.3 25.7 0.00 0.00 0.00 37 1011.1
20260502162705 17 12 12.9 25.7 0.00 0.00 0.00 37 1011.0
20260502162205 17 336 12.9 27.4 0.00 0.00 0.00 37 1011.0
20260502161706 17 340 12.9 27.4 0.00 0.00 0.00 39 1010.9
20260502161207 17 331 12.9 27.4 0.00 0.00 0.00 39 1010.9
20260502160205 16 342 11.3 22.5 0.00 0.00 0.00 40 1010.9
20260502152205 16 349 11.3 24.1 0.00 0.00 0.00 39 1010.5
20260502151207 16 335 9.7 19.3 0.00 0.00 0.00 40 1010.5
20260502150705 16 315 9.7 19.3 0.00 0.00 0.00 40 1010.5
20260502150205 16 320 6.4 12.9 0.00 0.00 0.00 40 1010.5
20260502130705 8 215 0.0 3.2 0.00 0.00 0.00 52 1010.6
20260502130205 8 217 0.0 3.2 0.00 0.00 0.00 53 1010.6
20260502123705 8 233 0.0 6.4 0.00 0.00 0.00 52 1010.5
20260502123207 7 249 0.0 9.7 0.00 0.00 0.00 53 1010.4
20260502122706 7 172 1.6 9.7 0.00 0.00 0.00 53 1010.4
20260502122205 7 224 3.2 6.4 0.00 0.00 0.00 53 1010.4
20260502115705 7 236 0.0 4.8 0.00 0.00 0.00 52 1010.2
20260502115205 7 153 0.0 4.8 0.00 0.00 0.00 53 1010.2
20260502114707 7 201 0.0 6.4 0.00 0.00 0.00 53 1010.2
20260502114206 7 224 1.6 6.4 0.00 0.00 0.00 52 1010.2
20260502113705 7 229 1.6 6.4 0.00 0.00 0.00 52 1010.1
20260502113205 8 235 0.0 6.4 0.00 0.00 0.00 53 1010.1
20260502112705 8 144 0.0 8.0 0.00 0.00 0.00 52 1010.2
20260502111707 8 188 1.6 8.0 0.00 0.00 0.00 49 1010.4
20260502111205 8 143 1.6 11.3 0.00 0.00 0.00 49 1010.3
20260502110207 8 224 3.2 14.5 0.00 0.00 0.00 48 1010.1
20260502105705 8 215 4.8 14.5 0.00 0.00 0.00 47 1010.1
20260502105205 9 251 4.8 14.5 0.00 0.00 0.00 47 1010.1
20260502104705 8 212 4.8 9.7 0.00 0.00 0.00 47 1010.2
20260502104207 8 222 3.2 8.0 0.00 0.00 0.00 47 1010.3
20260502103707 8 207 1.6 6.4 0.00 0.00 0.00 48 1010.3
20260502103205 8 234 0.0 0.0 0.00 0.00 0.00 48 1010.4
20260502102706 8 239 0.0 0.0 0.00 0.00 0.00 49 1010.4
20260502102205 8 239 0.0 0.0 0.00 0.00 0.00 49 1010.4
20260502101707 8 234 0.0 0.0 0.00 0.00 0.00 48 1010.2
20260502100705 8 234 0.0 3.2 0.00 0.00 0.00 49 1010.1
20260502100206 8 234 0.0 3.2 0.00 0.00 0.00 49 1010.1
20260502091205 9 174 0.0 3.2 0.00 0.00 0.00 48 1010.4
20260502090205 9 165 0.0 1.6 0.00 0.00 0.00 48 1010.4
20260502071207 9 150 1.6 4.8 0.00 0.00 0.00 45 1011.5
20260502070705 9 150 0.0 4.8 0.00 0.00 0.00 45 1011.5
20260502070205 9 160 0.0 4.8 0.00 0.00 0.00 45 1011.6
20260502065705 9 161 1.6 4.8 0.00 0.00 0.00 45 1011.7
20260502065205 9 162 0.0 6.4 0.00 0.00 0.00 45 1011.7
20260502064705 10 134 0.0 6.4 0.00 0.00 0.00 45 1011.7
20260502063706 10 157 0.0 3.2 0.00 0.00 0.00 43 1011.7
20260502063204 10 141 0.0 6.4 0.00 0.00 0.00 44 1011.7
20260502062706 10 135 0.0 9.7 0.00 0.00 0.00 42 1011.7
20260502062205 10 144 1.6 9.7 0.00 0.00 0.00 42 1011.8
20260502061705 10 195 1.6 9.7 0.00 0.00 0.00 42 1011.8
20260502061205 10 203 0.0 4.8 0.00 0.00 0.00 42 1011.9
20260502060704 10 158 0.0 4.8 0.00 0.00 0.00 41 1011.9
20260502060205 10 153 0.0 4.8 0.00 0.00 0.00 41 1012.0
20260502055205 10 123 0.0 4.8 0.00 0.00 0.00 40 1012.0
20260502054705 10 150 0.0 4.8 0.00 0.00 0.00 40 1012.0
20260502054205 10 241 0.0 4.8 0.00 0.00 0.00 39 1012.0
20260502052705 10 124 0.0 0.0 0.00 0.00 0.00 39 1012.1
20260502052205 11 95 0.0 1.6 0.00 0.00 0.00 38 1012.2
20260502051706 11 113 0.0 1.6 0.00 0.00 0.00 38 1012.2
20260502051205 11 132 0.0 1.6 0.00 0.00 0.00 38 1012.1
20260502050205 11 140 0.0 1.6 0.00 0.00 0.00 37 1012.2
20260502045705 11 148 0.0 0.0 0.00 0.00 0.00 37 1012.3
20260502045204 11 160 0.0 0.0 0.00 0.00 0.00 37 1012.3
20260502044705 11 134 0.0 0.0 0.00 0.00 0.00 38 1012.4
20260502044205 10 134 0.0 0.0 0.00 0.00 0.00 39 1012.5
20260502043707 10 149 0.0 0.0 0.00 0.00 0.00 40 1012.5
20260502042705 10 149 0.0 0.0 0.00 0.00 0.00 40 1012.6
20260502042205 10 149 0.0 0.0 0.00 0.00 0.00 39 1012.8
20260502040704 11 149 0.0 0.0 0.00 0.00 0.00 38 1012.9
20260502035206 11 149 0.0 0.0 0.00 0.00 0.00 36 1012.9
20260502034705 12 149 0.0 0.0 0.00 0.00 0.00 35 1012.9
20260502034205 12 154 0.0 0.0 0.00 0.00 0.00 34 1013.0
20260502033205 13 153 0.0 0.0 0.00 0.00 0.00 33 1013.0
20260502032705 13 153 0.0 0.0 0.00 0.00 0.00 32 1013.0
20260502032205 14 154 0.0 6.4 0.00 0.00 0.00 31 1013.1
20260502031706 14 158 0.0 6.4 0.00 0.00 0.00 30 1013.1
20260502031205 14 171 0.0 4.8 0.00 0.00 0.00 30 1013.2
20260502030705 15 186 0.0 4.8 0.00 0.00 0.00 29 1013.1
20260502030205 15 227 0.0 6.4 0.00 0.00 0.00 28 1013.1
20260502025706 15 231 0.0 6.4 0.00 0.00 0.00 28 1013.1
20260502025205 15 167 0.0 6.4 0.00 0.00 0.00 28 1013.1
20260502024205 15 146 1.6 9.7 0.00 0.00 0.00 27 1013.0
20260502023705 16 168 1.6 9.7 0.00 0.00 0.00 26 1013.0
20260502023205 16 145 1.6 9.7 0.00 0.00 0.00 26 1012.9
20260502022706 16 134 1.6 8.0 0.00 0.00 0.00 26 1012.9
20260502022206 16 192 1.6 8.0 0.00 0.00 0.00 26 1013.0
20260502021705 16 168 1.6 8.0 0.00 0.00 0.00 26 1013.0
20260502021205 17 163 1.6 8.0 0.00 0.00 0.00 26 1012.9
20260502020707 17 114 0.0 8.0 0.00 0.00 0.00 26 1013.0
20260502020205 17 198 0.0 4.8 0.00 0.00 0.00 25 1013.0
20260502015205 17 162 0.0 8.0 0.00 0.00 0.00 24 1013.1
20260502014205 18 183 1.6 6.4 0.00 0.00 0.00 23 1013.1
20260502013705 18 209 0.0 11.3 0.00 0.00 0.00 23 1013.1
20260502013205 18 133 1.6 11.3 0.00 0.00 0.00 22 1013.1
20260502012706 19 229 1.6 11.3 0.00 0.00 0.00 22 1013.1
20260502012205 19 185 3.2 11.3 0.00 0.00 0.00 21 1013.2
20260502011705 19 248 3.2 11.3 0.00 0.00 0.00 21 1013.2
20260502010705 20 239 3.2 11.3 0.00 0.00 0.00 21 1013.3
20260502010205 20 128 3.2 11.3 0.00 0.00 0.00 21 1013.4
20260502005206 20 237 1.6 11.3 0.00 0.00 0.00 20 1013.4
20260502004705 20 209 1.6 11.3 0.00 0.00 0.00 20 1013.4
20260502004205 20 242 1.6 6.4 0.00 0.00 0.00 20 1013.5
20260502003706 20 268 1.6 9.7 0.00 0.00 0.00 19 1013.6
20260502003204 20 226 1.6 14.5 0.00 0.00 0.00 19 1013.6
20260502002706 20 236 1.6 19.3 0.00 0.00 0.00 19 1013.7
20260502002206 20 233 3.2 19.3 0.00 0.00 0.00 20 1013.7
20260502001705 20 207 4.8 12.9 0.00 0.00 0.00 19 1013.8
20260502001205 20 201 1.6 11.3 0.00 0.00 0.00 19 1013.8
20260502000707 20 314 1.6 11.3 0.00 0.00 0.00 19 1013.8
20260502000205 20 240 0.0 6.4 0.00 0.00 0.00 20 1013.8
20260501235206 20 215 1.6 12.9 0.00 0.00 0.00 19 1013.8
20260501234705 20 217 3.2 9.7 0.00 0.00 0.00 19 1013.9
20260501234205 21 293 1.6 9.7 0.00 0.00 0.00 19 1013.9
20260501233706 21 226 0.0 9.7 0.00 0.00 0.00 20 1013.9
20260501232705 20 222 1.6 14.5 0.00 0.00 0.00 20 1014.1
20260501232206 20 231 1.6 16.1 0.00 0.00 0.00 20 1014.1
20260501231705 20 277 1.6 16.1 0.00 0.00 0.00 20 1014.2
20260501230707 20 330 3.2 12.9 0.00 0.00 0.00 20 1014.2
20260501230205 21 227 1.6 12.9 0.00 0.00 0.00 20 1014.3
20260501225705 20 191 0.0 9.7 0.00 0.00 0.00 21 1014.3
20260501225206 20 229 1.6 9.7 0.00 0.00 0.00 21 1014.3
20260501224706 20 221 1.6 17.7 0.00 0.00 0.00 20 1014.4
20260501224205 20 231 3.2 19.3 0.00 0.00 0.00 21 1014.6
20260501223206 20 219 4.8 19.3 0.00 0.00 0.00 21 1014.7
20260501222705 20 213 1.6 11.3 0.00 0.00 0.00 20 1014.7
20260501221705 20 223 3.2 20.9 0.00 0.00 0.00 21 1014.8
20260501221207 20 131 3.2 20.9 0.00 0.00 0.00 21 1014.9
20260501220705 20 234 1.6 11.3 0.00 0.00 0.00 21 1014.9
20260501220213 20 221 1.6 11.3 0.00 0.00 0.00 21 1014.9
20260501215206 20 139 3.2 14.5 0.00 0.00 0.00 21 1015.0
20260501214706 19 345 1.6 14.5 0.00 0.00 0.00 22 1015.1
20260501213705 20 309 6.4 17.7 0.00 0.00 0.00 22 1015.3
20260501212205 20 268 1.6 11.3 0.00 0.00 0.00 21 1015.3
20260501211705 20 158 1.6 11.3 0.00 0.00 0.00 22 1015.4
20260501211205 19 175 3.2 12.9 0.00 0.00 0.00 22 1015.5
20260501210705 19 239 3.2 12.9 0.00 0.00 0.00 21 1015.5
20260501210205 19 256 1.6 9.7 0.00 0.00 0.00 22 1015.5
20260501205705 20 155 1.6 12.9 0.00 0.00 0.00 23 1015.5
20260501205204 19 205 3.2 12.9 0.00 0.00 0.00 23 1015.6
20260501204707 18 125 1.6 12.9 0.00 0.00 0.00 22 1015.6
20260501204205 20 302 1.6 9.7 0.00 0.00 0.00 21 1015.7
20260501203705 19 241 1.6 12.9 0.00 0.00 0.00 22 1015.8
20260501203206 19 231 3.2 12.9 0.00 0.00 0.00 23 1015.8
20260501202705 18 224 3.2 12.9 0.00 0.00 0.00 24 1015.8
20260501202205 18 317 3.2 9.7 0.00 0.00 0.00 23 1015.9
20260501201705 18 339 1.6 12.9 0.00 0.00 0.00 23 1015.9
20260501201207 18 266 1.6 12.9 0.00 0.00 0.00 24 1015.9
20260501200707 18 205 3.2 12.9 0.00 0.00 0.00 24 1016.0
20260501195205 17 299 3.2 17.7 0.00 0.00 0.00 25 1016.1
20260501194706 17 321 4.8 17.7 0.00 0.00 0.00 24 1016.2
20260501194205 18 203 3.2 14.5 0.00 0.00 0.00 24 1016.2
20260501193704 18 240 3.2 12.9 0.00 0.00 0.00 25 1016.1
20260501193207 18 302 1.6 11.3 0.00 0.00 0.00 24 1016.1
20260501192705 18 237 1.6 11.3 0.00 0.00 0.00 26 1016.1
20260501192205 17 320 1.6 9.7 0.00 0.00 0.00 24 1016.2
20260501191707 18 328 1.6 12.9 0.00 0.00 0.00 24 1016.2
20260501191206 18 299 3.2 12.9 0.00 0.00 0.00 25 1016.3
20260501190705 18 177 3.2 12.9 0.00 0.00 0.00 25 1016.3
20260501190205 18 210 3.2 14.5 0.00 0.00 0.00 25 1016.3
20260501185707 18 243 4.8 14.5 0.00 0.00 0.00 25 1016.5
20260501185207 17 188 3.2 14.5 0.00 0.00 0.00 25 1016.5
20260501184705 17 147 0.0 11.3 0.00 0.00 0.00 27 1016.6
20260501184205 16 334 1.6 11.3 0.00 0.00 0.00 27 1016.5
20260501183706 17 340 3.2 12.9 0.00 0.00 0.00 26 1016.6
20260501183206 17 328 3.2 12.9 0.00 0.00 0.00 26 1016.7
20260501182705 17 242 3.2 12.9 0.00 0.00 0.00 25 1016.7
20260501182207 17 275 3.2 12.9 0.00 0.00 0.00 26 1016.7
20260501181705 17 298 1.6 14.5 0.00 0.00 0.00 26 1016.6
20260501180707 16 143 3.2 14.5 0.00 0.00 0.00 27 1016.8